Simultaneous Nadir Overpasses (SNOs) Predictions

Prediction of SNOs between AQUA and GOES-15 Satellite Orbit:

Table of predicted SNOs for the next 14.0 days since TLE Epoch: 8/20/2022
Index Date Time (AQUA) AQUA Lat,Lon GOES-15 Lat,Lon Distance(km) Time Diff (sec)
1 08/20/2022 10:29:46 1.32,-132.27 0.40,-128.07 477.81 80
2 08/21/2022 21:55:58 0.44,-124.06 -0.39,-128.04 451.38 80
3 08/22/2022 10:17:06 0.65,-129.19 0.39,-128.05 129.33 80
4 08/24/2022 10:04:26 -0.04,-126.11 0.39,-128.03 218.77 80
5 08/24/2022 22:25:42 -1.11,-131.26 -0.39,-128.00 371.19 80
6 08/26/2022 22:13:02 -0.40,-128.18 -0.38,-127.98 23.05 80
7 08/28/2022 22:00:21 0.25,-125.10 -0.38,-127.95 325.23 80
8 08/29/2022 10:21:28 0.89,-130.21 0.38,-127.98 254.35 80
9 08/31/2022 10:08:47 0.22,-127.13 0.38,-127.95 93.17 80
10 08/31/2022 22:30:03 -1.34,-132.28 -0.38,-127.90 498.58 80
11 09/02/2022 09:56:06 -0.47,-124.04 0.38,-127.91 439.97 80
12 09/02/2022 22:17:22 -0.65,-129.20 -0.38,-127.86 151.78 80
